Location: Ariel
(45.9570°N, 122.5700°W)
Time: 23:52:30
(UTC-07:00)

NOAA 15 - Visible Passes

Search period start: 13 October 2019 00:00
Search period end: 23 October 2019 00:00
Orbit: 798 x 812 km, 98.7° (Epoch: 13 October)

Date Brightness Start Highest point End Pass type
(mag) Time Alt. Az. Time Alt. Az. Time Alt. Az.
13 Oct 4.6 19:18:39 10° SSE 19:23:55 71° ENE 19:29:14 10° N visible
13 Oct 7.3 21:00:52 10° SW 21:04:13 17° W 21:07:37 10° NW visible
14 Oct 5.0 18:53:57 10° SE 18:58:56 44° ENE 19:03:59 10° N visible
14 Oct 6.6 20:34:24 10° SSW 20:38:52 27° W 20:43:23 10° NW visible
15 Oct 5.8 20:08:34 10° S 20:13:37 45° W 20:18:44 10° NNW visible
16 Oct 4.9 19:43:10 10° S 19:48:28 73° WSW 19:53:49 10° NNW visible
17 Oct 4.6 19:18:08 10° SSE 19:23:25 70° ENE 19:28:43 10° N visible
17 Oct 7.3 21:00:18 10° SW 21:03:42 17° W 21:07:09 10° NW visible
18 Oct 5.0 18:53:27 10° SE 18:58:27 44° ENE 19:03:28 10° N visible
18 Oct 6.6 20:33:51 10° SSW 20:38:22 28° W 20:42:55 10° NW visible
19 Oct 5.7 20:08:03 10° S 20:13:08 45° W 20:18:14 10° NNW visible
20 Oct 4.8 19:42:40 10° S 19:47:59 74° WSW 19:53:19 10° NNW visible
21 Oct 4.6 19:17:39 10° SSE 19:22:55 69° ENE 19:28:13 10° N visible
21 Oct 7.3 20:59:44 10° SW 21:03:12 17° W 21:06:40 10° NW visible
22 Oct 5.0 18:52:57 10° SE 18:57:57 43° ENE 19:02:58 10° N visible
22 Oct 6.6 20:33:20 10° SSW 20:37:51 28° W 20:42:25 10° NW visible
